Time,TemperatureF,DewpointF,PressureIn,WindDirection,WindDirectionDegrees,WindSpeedMPH,WindSpeedGustMPH,Humidity,HourlyPrecipIn,Conditions,Clouds,dailyrainin,SoftwareType,DateUTC
2013-02-15 00:02:00,27.0,24.0,29.98,North,9,5.0,-999.0,90,-99.99,,,-99.99,,2013-02-15 05:02:00,
2013-02-15 00:12:00,27.0,24.0,29.98,North,9,5.0,-999.0,90,-99.99,,,-99.99,,2013-02-15 05:12:00,
2013-02-15 00:22:00,27.0,24.0,29.97,North,349,7.0,-999.0,89,-99.99,,,-99.99,,2013-02-15 05:22:00,
2013-02-15 00:32:00,27.0,24.0,29.98,North,360,5.0,-999.0,89,-99.99,,,-99.99,,2013-02-15 05:32:00,
2013-02-15 00:42:00,27.0,24.0,29.98,North,360,5.0,-999.0,89,-99.99,,,-99.99,,2013-02-15 05:42:00,
2013-02-15 00:52:00,27.0,24.0,29.98,NNW,333,5.0,-999.0,88,-99.99,,,-99.99,,2013-02-15 05:52:00,
2013-02-15 01:02:00,27.0,24.0,29.98,NNW,333,5.0,-999.0,88,-99.99,,,-99.99,,2013-02-15 06:02:00,
2013-02-15 01:11:00,27.0,24.0,29.99,NW,315,1.0,-999.0,88,-99.99,,,-99.99,,2013-02-15 06:11:00,
2013-02-15 01:22:00,27.0,24.0,29.99,NW,315,1.0,-999.0,88,-99.99,,,-99.99,,2013-02-15 06:22:00,
2013-02-15 01:32:00,27.0,24.0,29.99,North,350,4.0,-999.0,87,-99.99,,,-99.99,,2013-02-15 06:32:00,
2013-02-15 01:42:00,27.0,24.0,29.99,North,350,4.0,-999.0,87,-99.99,,,-99.99,,2013-02-15 06:42:00,
2013-02-15 01:52:00,26.0,22.0,30.00,North,360,6.0,-999.0,86,-99.99,,,-99.99,,2013-02-15 06:52:00,
2013-02-15 02:01:00,26.0,22.0,30.00,North,9,4.0,-999.0,85,-99.99,,,-99.99,,2013-02-15 07:01:00,
2013-02-15 02:11:00,26.0,22.0,30.00,North,9,4.0,-999.0,85,-99.99,,,-99.99,,2013-02-15 07:11:00,
2013-02-15 02:21:00,26.0,22.0,30.00,NNE,13,2.0,-999.0,84,-99.99,,,-99.99,,2013-02-15 07:21:00,
2013-02-15 02:32:00,25.0,21.0,30.01,North,355,2.0,-999.0,84,-99.99,,,-99.99,,2013-02-15 07:32:00,
2013-02-15 02:42:00,25.0,21.0,30.01,North,355,2.0,-999.0,84,-99.99,,,-99.99,,2013-02-15 07:42:00,
2013-02-15 02:52:00,25.0,21.0,30.01,NNW,341,2.0,-999.0,84,-99.99,,,-99.99,,2013-02-15 07:52:00,
2013-02-15 03:01:00,25.0,21.0,30.01,North,360,3.0,-999.0,84,-99.99,,,-99.99,,2013-02-15 08:01:00,
2013-02-15 03:11:00,25.0,21.0,30.01,North,360,3.0,-999.0,84,-99.99,,,-99.99,,2013-02-15 08:11:00,
2013-02-15 03:21:00,25.0,21.0,30.02,North,355,3.0,-999.0,84,-99.99,,,-99.99,,2013-02-15 08:21:00,
2013-02-15 03:32:00,25.0,21.0,30.02,North,349,2.0,-999.0,84,-99.99,,,-99.99,,2013-02-15 08:32:00,
2013-02-15 03:42:00,25.0,21.0,30.02,North,349,2.0,-999.0,84,-99.99,,,-99.99,,2013-02-15 08:42:00,
2013-02-15 03:53:00,25.0,21.0,30.01,North,5,3.0,-999.0,85,-99.99,,,-99.99,,2013-02-15 08:53:00,
2013-02-15 04:02:00,25.0,21.0,30.02,North,5,1.0,-999.0,85,-99.99,,,-99.99,,2013-02-15 09:02:00,
2013-02-15 04:12:00,25.0,21.0,30.02,North,5,1.0,-999.0,85,-99.99,,,-99.99,,2013-02-15 09:12:00,
2013-02-15 04:21:00,25.0,21.0,30.03,North,5,0.0,-999.0,85,-99.99,,,-99.99,,2013-02-15 09:21:00,
2013-02-15 04:32:00,25.0,21.0,30.03,NNW,348,5.0,-999.0,85,-99.99,,,-99.99,,2013-02-15 09:32:00,
2013-02-15 04:42:00,25.0,21.0,30.03,NNW,348,5.0,-999.0,85,-99.99,,,-99.99,,2013-02-15 09:42:00,
2013-02-15 04:52:00,25.0,21.0,30.03,NNW,348,5.0,-999.0,85,-99.99,,,-99.99,,2013-02-15 09:52:00,
2013-02-15 05:01:00,25.0,21.0,30.04,WNW,297,5.0,-999.0,84,-99.99,,,-99.99,,2013-02-15 10:01:00,
2013-02-15 05:11:00,25.0,21.0,30.04,WNW,297,5.0,-999.0,84,-99.99,,,-99.99,,2013-02-15 10:11:00,
2013-02-15 05:21:00,25.0,21.0,30.05,NW,304,4.0,-999.0,84,-99.99,,,-99.99,,2013-02-15 10:21:00,
2013-02-15 05:32:00,24.0,20.0,30.06,NNW,338,6.0,-999.0,83,-99.99,,,-99.99,,2013-02-15 10:32:00,
2013-02-15 05:42:00,24.0,20.0,30.06,NNW,338,6.0,-999.0,83,-99.99,,,-99.99,,2013-02-15 10:42:00,
2013-02-15 05:52:00,24.0,20.0,30.06,NNW,338,6.0,-999.0,83,-99.99,,,-99.99,,2013-02-15 10:52:00,
2013-02-15 06:01:00,24.0,19.0,30.07,North,355,6.0,-999.0,80,-99.99,,,-99.99,,2013-02-15 11:01:00,
2013-02-15 06:11:00,24.0,19.0,30.07,North,355,6.0,-999.0,80,-99.99,,,-99.99,,2013-02-15 11:11:00,
2013-02-15 06:23:00,24.0,18.0,30.09,NNW,342,5.0,-999.0,79,-99.99,,,-99.99,,2013-02-15 11:23:00,
2013-02-15 06:32:00,24.0,18.0,30.09,NNE,13,4.0,-999.0,79,-99.99,,,-99.99,,2013-02-15 11:32:00,
2013-02-15 06:42:00,24.0,18.0,30.09,NNE,13,4.0,-999.0,79,-99.99,,,-99.99,,2013-02-15 11:42:00,
2013-02-15 06:52:00,23.0,17.0,30.09,NNW,339,4.0,-999.0,78,-99.99,,,-99.99,,2013-02-15 11:52:00,
2013-02-15 07:02:00,23.0,17.0,30.10,NNW,330,4.0,-999.0,78,-99.99,,,-99.99,,2013-02-15 12:02:00,
2013-02-15 07:11:00,23.0,17.0,30.10,NNW,330,4.0,-999.0,78,-99.99,,,-99.99,,2013-02-15 12:11:00,
2013-02-15 07:21:00,23.0,17.0,30.10,NNW,330,4.0,-999.0,78,-99.99,,,-99.99,,2013-02-15 12:21:00,
2013-02-15 07:32:00,23.0,18.0,30.10,NNW,344,4.0,-999.0,80,-99.99,,,-99.99,,2013-02-15 12:32:00,
2013-02-15 07:42:00,23.0,18.0,30.10,NNW,344,4.0,-999.0,80,-99.99,,,-99.99,,2013-02-15 12:42:00,
2013-02-15 07:52:00,23.0,18.0,30.11,NW,317,2.0,-999.0,81,-99.99,,,-99.99,,2013-02-15 12:52:00,
2013-02-15 08:02:00,23.0,18.0,30.11,WNW,301,3.0,-999.0,81,-99.99,,,-99.99,,2013-02-15 13:02:00,
2013-02-15 08:11:00,23.0,18.0,30.11,WNW,301,3.0,-999.0,81,-99.99,,,-99.99,,2013-02-15 13:11:00,
2013-02-15 08:22:00,23.0,18.0,30.11,WNW,294,1.0,-999.0,82,-99.99,,,-99.99,,2013-02-15 13:22:00,
2013-02-15 08:32:00,23.0,19.0,30.12,NW,315,1.0,-999.0,83,-99.99,,,-99.99,,2013-02-15 13:32:00,
2013-02-15 08:42:00,23.0,19.0,30.12,NW,315,1.0,-999.0,83,-99.99,,,-99.99,,2013-02-15 13:42:00,
2013-02-15 08:52:00,23.0,19.0,30.13,NW,309,3.0,-999.0,83,-99.99,,,-99.99,,2013-02-15 13:52:00,
2013-02-15 09:01:00,23.0,19.0,30.14,NW,308,3.0,-999.0,83,-99.99,,,-99.99,,2013-02-15 14:01:00,
2013-02-15 09:12:00,23.0,19.0,30.14,NW,308,3.0,-999.0,83,-99.99,,,-99.99,,2013-02-15 14:12:00,
2013-02-15 09:21:00,23.0,18.0,30.14,NNW,332,6.0,-999.0,81,-99.99,,,-99.99,,2013-02-15 14:21:00,
2013-02-15 09:32:00,23.0,16.0,30.15,WNW,295,7.0,-999.0,75,-99.99,,,-99.99,,2013-02-15 14:32:00,
2013-02-15 09:42:00,23.0,16.0,30.15,WNW,295,7.0,-999.0,75,-99.99,,,-99.99,,2013-02-15 14:42:00,
2013-02-15 09:52:00,24.0,16.0,30.15,NW,319,7.0,-999.0,72,-99.99,,,-99.99,,2013-02-15 14:52:00,
2013-02-15 10:02:00,24.0,16.0,30.16,NNW,329,7.0,-999.0,70,-99.99,,,-99.99,,2013-02-15 15:02:00,
2013-02-15 10:11:00,24.0,16.0,30.16,NNW,329,7.0,-999.0,70,-99.99,,,-99.99,,2013-02-15 15:11:00,
2013-02-15 10:21:00,24.0,15.0,30.16,NW,313,6.0,-999.0,69,-99.99,,,-99.99,,2013-02-15 15:21:00,
2013-02-15 10:32:00,24.0,15.0,30.17,NNW,344,8.0,-999.0,69,-99.99,,,-99.99,,2013-02-15 15:32:00,
2013-02-15 10:42:00,25.0,16.0,30.17,WNW,296,7.0,-999.0,69,-99.99,,,-99.99,,2013-02-15 15:42:00,
2013-02-15 10:52:00,25.0,16.0,30.17,WNW,296,7.0,-999.0,69,-99.99,,,-99.99,,2013-02-15 15:52:00,
2013-02-15 11:02:00,25.0,16.0,30.17,WNW,290,7.0,-999.0,68,-99.99,,,-99.99,,2013-02-15 16:02:00,
2013-02-15 11:11:00,25.0,16.0,30.17,WNW,290,7.0,-999.0,68,-99.99,,,-99.99,,2013-02-15 16:11:00,
2013-02-15 11:22:00,25.0,16.0,30.17,NNW,333,6.0,-999.0,69,-99.99,,,-99.99,,2013-02-15 16:22:00,
2013-02-15 11:32:00,25.0,16.0,30.17,NNW,333,6.0,-999.0,69,-99.99,,,-99.99,,2013-02-15 16:32:00,
2013-02-15 11:42:00,25.0,16.0,30.17,NNW,333,6.0,-999.0,69,-99.99,,,-99.99,,2013-02-15 16:42:00,
2013-02-15 11:52:00,25.0,15.0,30.18,NNW,340,6.0,-999.0,66,-99.99,,,-99.99,,2013-02-15 16:52:00,
2013-02-15 12:01:00,25.0,16.0,30.18,WNW,284,7.0,-999.0,68,-99.99,,,-99.99,,2013-02-15 17:01:00,
2013-02-15 12:11:00,26.0,18.0,30.18,NW,314,5.0,-999.0,71,-99.99,,,-99.99,,2013-02-15 17:11:00,
2013-02-15 12:21:00,26.0,18.0,30.18,NW,314,5.0,-999.0,71,-99.99,,,-99.99,,2013-02-15 17:21:00,
2013-02-15 12:32:00,26.0,18.0,30.18,WNW,300,6.0,-999.0,70,-99.99,,,-99.99,,2013-02-15 17:32:00,
2013-02-15 12:42:00,26.0,18.0,30.18,WNW,300,6.0,-999.0,70,-99.99,,,-99.99,,2013-02-15 17:42:00,
2013-02-15 12:52:00,27.0,19.0,30.17,North,5,4.0,-999.0,70,-99.99,,,-99.99,,2013-02-15 17:52:00,
2013-02-15 13:02:00,26.0,16.0,30.17,NW,319,7.0,-999.0,65,-99.99,,,-99.99,,2013-02-15 18:02:00,
2013-02-15 13:11:00,26.0,16.0,30.17,NW,319,7.0,-999.0,65,-99.99,,,-99.99,,2013-02-15 18:11:00,
2013-02-15 13:21:00,26.0,17.0,30.17,West,278,5.0,-999.0,69,-99.99,,,-99.99,,2013-02-15 18:21:00,
2013-02-15 13:32:00,26.0,17.0,30.17,WNW,297,5.0,-999.0,69,-99.99,,,-99.99,,2013-02-15 18:32:00,
2013-02-15 13:42:00,26.0,17.0,30.17,WNW,297,5.0,-999.0,69,-99.99,,,-99.99,,2013-02-15 18:42:00,
2013-02-15 13:53:00,26.0,17.0,30.17,NW,306,5.0,-999.0,67,-99.99,,,-99.99,,2013-02-15 18:53:00,
2013-02-15 14:01:00,27.0,18.0,30.16,WNW,284,4.0,-999.0,67,-99.99,,,-99.99,,2013-02-15 19:01:00,
2013-02-15 14:11:00,27.0,18.0,30.16,WNW,284,4.0,-999.0,67,-99.99,,,-99.99,,2013-02-15 19:11:00,
2013-02-15 14:22:00,28.0,18.0,30.16,WSW,255,6.0,-999.0,65,-99.99,,,-99.99,,2013-02-15 19:22:00,
2013-02-15 14:32:00,27.0,17.0,30.16,WSW,238,6.0,-999.0,65,-99.99,,,-99.99,,2013-02-15 19:32:00,
2013-02-15 14:42:00,27.0,17.0,30.16,WSW,238,6.0,-999.0,65,-99.99,,,-99.99,,2013-02-15 19:42:00,
2013-02-15 14:52:00,27.0,16.0,30.16,West,268,7.0,-999.0,64,-99.99,,,-99.99,,2013-02-15 19:52:00,
2013-02-15 15:01:00,27.0,16.0,30.16,West,268,7.0,-999.0,64,-99.99,,,-99.99,,2013-02-15 20:01:00,
2013-02-15 15:11:00,27.0,16.0,30.16,West,268,7.0,-999.0,64,-99.99,,,-99.99,,2013-02-15 20:11:00,
2013-02-15 15:21:00,26.0,16.0,30.17,NW,305,6.0,-999.0,66,-99.99,,,-99.99,,2013-02-15 20:21:00,
2013-02-15 15:32:00,26.0,16.0,30.16,WNW,293,8.0,-999.0,64,-99.99,,,-99.99,,2013-02-15 20:32:00,
2013-02-15 15:42:00,26.0,16.0,30.16,WNW,293,8.0,-999.0,64,-99.99,,,-99.99,,2013-02-15 20:42:00,
2013-02-15 15:52:00,25.0,15.0,30.17,WNW,300,6.0,-999.0,66,-99.99,,,-99.99,,2013-02-15 20:52:00,
2013-02-15 16:02:00,25.0,16.0,30.17,West,269,6.0,-999.0,67,-99.99,,,-99.99,,2013-02-15 21:02:00,
2013-02-15 16:11:00,25.0,16.0,30.17,West,269,6.0,-999.0,67,-99.99,,,-99.99,,2013-02-15 21:11:00,
2013-02-15 16:22:00,25.0,16.0,30.18,NW,309,5.0,-999.0,68,-99.99,,,-99.99,,2013-02-15 21:22:00,
2013-02-15 16:32:00,25.0,16.0,30.18,NW,309,5.0,-999.0,68,-99.99,,,-99.99,,2013-02-15 21:32:00,
2013-02-15 16:42:00,25.0,16.0,30.18,NW,309,5.0,-999.0,68,-99.99,,,-99.99,,2013-02-15 21:42:00,
2013-02-15 16:52:00,25.0,16.0,30.18,NW,309,5.0,-999.0,68,-99.99,,,-99.99,,2013-02-15 21:52:00,
2013-02-15 17:02:00,25.0,17.0,30.18,WNW,290,7.0,-999.0,70,-99.99,,,-99.99,,2013-02-15 22:02:00,
2013-02-15 17:11:00,25.0,17.0,30.18,WNW,290,7.0,-999.0,70,-99.99,,,-99.99,,2013-02-15 22:11:00,
2013-02-15 17:22:00,25.0,16.0,30.19,West,261,7.0,-999.0,69,-99.99,,,-99.99,,2013-02-15 22:22:00,
2013-02-15 17:32:00,25.0,16.0,30.19,NW,306,6.0,-999.0,68,-99.99,,,-99.99,,2013-02-15 22:32:00,
2013-02-15 17:42:00,25.0,16.0,30.19,NW,306,6.0,-999.0,68,-99.99,,,-99.99,,2013-02-15 22:42:00,
2013-02-15 17:51:00,24.0,16.0,30.19,West,270,5.0,-999.0,70,-99.99,,,-99.99,,2013-02-15 22:51:00,
2013-02-15 18:02:00,24.0,15.0,30.20,WNW,296,6.0,-999.0,69,-99.99,,,-99.99,,2013-02-15 23:02:00,
2013-02-15 18:11:00,24.0,15.0,30.20,WNW,296,6.0,-999.0,69,-99.99,,,-99.99,,2013-02-15 23:11:00,
2013-02-15 18:21:00,24.0,16.0,30.19,West,260,3.0,-999.0,71,-99.99,,,-99.99,,2013-02-15 23:21:00,
2013-02-15 18:32:00,23.0,15.0,30.21,WSW,254,4.0,-999.0,72,-99.99,,,-99.99,,2013-02-15 23:32:00,
2013-02-15 18:42:00,23.0,15.0,30.21,WSW,254,4.0,-999.0,72,-99.99,,,-99.99,,2013-02-15 23:42:00,
2013-02-15 18:52:00,23.0,16.0,30.21,West,271,3.0,-999.0,74,-99.99,,,-99.99,,2013-02-15 23:52:00,
2013-02-15 19:02:00,22.0,15.0,30.22,WNW,300,6.0,-999.0,74,-99.99,,,-99.99,,2013-02-16 00:02:00,
2013-02-15 19:11:00,22.0,15.0,30.22,WNW,300,6.0,-999.0,74,-99.99,,,-99.99,,2013-02-16 00:11:00,
2013-02-15 19:22:00,22.0,16.0,30.22,WSW,250,4.0,-999.0,76,-99.99,,,-99.99,,2013-02-16 00:22:00,
2013-02-15 19:32:00,22.0,16.0,30.22,West,273,2.0,-999.0,77,-99.99,,,-99.99,,2013-02-16 00:32:00,
2013-02-15 19:42:00,22.0,16.0,30.22,West,273,2.0,-999.0,77,-99.99,,,-99.99,,2013-02-16 00:42:00,
2013-02-15 19:51:00,22.0,16.0,30.22,West,277,1.0,-999.0,78,-99.99,,,-99.99,,2013-02-16 00:51:00,
2013-02-15 20:02:00,22.0,16.0,30.22,West,278,1.0,-999.0,79,-99.99,,,-99.99,,2013-02-16 01:02:00,
2013-02-15 20:11:00,22.0,16.0,30.22,West,278,1.0,-999.0,79,-99.99,,,-99.99,,2013-02-16 01:11:00,
2013-02-15 20:21:00,22.0,17.0,30.22,West,279,0.0,-999.0,80,-99.99,,,-99.99,,2013-02-16 01:21:00,
2013-02-15 20:32:00,22.0,17.0,30.22,West,279,0.0,-999.0,81,-99.99,,,-99.99,,2013-02-16 01:32:00,
2013-02-15 20:42:00,22.0,17.0,30.22,West,279,0.0,-999.0,81,-99.99,,,-99.99,,2013-02-16 01:42:00,
2013-02-15 20:52:00,22.0,17.0,30.22,West,279,0.0,-999.0,81,-99.99,,,-99.99,,2013-02-16 01:52:00,
2013-02-15 21:01:00,22.0,17.0,30.22,West,279,0.0,-999.0,82,-99.99,,,-99.99,,2013-02-16 02:01:00,
2013-02-15 21:11:00,22.0,17.0,30.22,West,279,0.0,-999.0,82,-99.99,,,-99.99,,2013-02-16 02:11:00,
2013-02-15 21:21:00,22.0,17.0,30.22,West,279,0.0,-999.0,82,-99.99,,,-99.99,,2013-02-16 02:21:00,
2013-02-15 21:32:00,22.0,18.0,30.22,West,279,0.0,-999.0,83,-99.99,,,-99.99,,2013-02-16 02:32:00,
2013-02-15 21:42:00,22.0,18.0,30.22,West,279,0.0,-999.0,83,-99.99,,,-99.99,,2013-02-16 02:42:00,
2013-02-15 21:52:00,22.0,18.0,30.22,West,279,0.0,-999.0,83,-99.99,,,-99.99,,2013-02-16 02:52:00,
2013-02-15 22:02:00,21.0,17.0,30.22,West,279,0.0,-999.0,84,-99.99,,,-99.99,,2013-02-16 03:02:00,
2013-02-15 22:11:00,21.0,17.0,30.22,West,279,0.0,-999.0,84,-99.99,,,-99.99,,2013-02-16 03:11:00,
2013-02-15 22:21:00,21.0,17.0,30.22,West,279,0.0,-999.0,85,-99.99,,,-99.99,,2013-02-16 03:21:00,
2013-02-15 22:32:00,21.0,17.0,30.22,West,279,0.0,-999.0,85,-99.99,,,-99.99,,2013-02-16 03:32:00,
2013-02-15 22:42:00,21.0,17.0,30.22,West,279,0.0,-999.0,85,-99.99,,,-99.99,,2013-02-16 03:42:00,
2013-02-15 22:52:00,21.0,17.0,30.21,West,279,0.0,-999.0,85,-99.99,,,-99.99,,2013-02-16 03:52:00,
2013-02-15 23:01:00,21.0,17.0,30.21,West,279,0.0,-999.0,86,-99.99,,,-99.99,,2013-02-16 04:01:00,
2013-02-15 23:11:00,21.0,17.0,30.20,West,279,0.0,-999.0,86,-99.99,,,-99.99,,2013-02-16 04:11:00,
2013-02-15 23:21:00,21.0,17.0,30.20,West,279,0.0,-999.0,86,-99.99,,,-99.99,,2013-02-16 04:21:00,
2013-02-15 23:32:00,21.0,17.0,30.20,West,279,0.0,-999.0,86,-99.99,,,-99.99,,2013-02-16 04:32:00,
2013-02-15 23:42:00,21.0,17.0,30.20,West,279,0.0,-999.0,86,-99.99,,,-99.99,,2013-02-16 04:42:00,
2013-02-15 23:51:00,21.0,17.0,30.19,West,279,0.0,-999.0,86,-99.99,,,-99.99,,2013-02-16 04:51:00,